This demonstration page uses our WeatherBlox Daily Observations layout. Learn more.

Left ArrowRight Arrow

40.92945, -100.16068

Hourly Observations for September 12, 2019

Temp ( °F °C ) Dew Point ( °F °C ) Humidity (%) Winds ( mph kmh ) Pressure ( in mb ) Visibility ( mi km ) Precip ( " mm )
12:15 am 00:15 Cloudy with Drizzle 66 18.7 63 17.3 92 92 NNW 12 19 29.82 1010 10 16 0.00 0.00
12:35 am 00:35 Cloudy 65 18.2 64 17.5 96 96 NW 3 6 29.84 1010 10 16 0.03 0.76
12:55 am 00:55 Cloudy with Nearby Thunderstorms 65 18.1 64 17.7 98 98 W 7 11 29.85 1011 10 16 0.07 1.78
1:15 am 01:15 Cloudy with Light Rain 64 17.6 64 17.5 99 99 NW 3 6 29.86 1011 4 6 0.29 7.37
1:35 am 01:35 Cloudy with Nearby Thunderstorms 64 17.8 64 17.5 98 98 N 8 13 29.82 1010 10 16 0.30 7.62
1:55 am 01:55 Cloudy with Light Rain 64 18 64 17.7 98 98 WNW 7 11 29.87 1011 10 16 0.32 8.13
2:15 am 02:15 Cloudy with Light Rain 64 18 64 17.6 98 98 NW 10 17 29.88 1012 10 16 0.00 0.00
2:35 am 02:35 Cloudy with Light Rain 64 17.8 63 17.3 97 97 NW 8 13 29.88 1012 10 16 0.00 0.00
2:55 am 02:55 Mostly Cloudy with Nearby Thunderstorms 63 17.3 62 16.7 96 96 NNW 6 9 29.87 1011 10 16 0.00 0.00
3:15 am 03:15 Partly Cloudy 63 17 62 16.4 96 96 NW 5 7 29.88 1012 10 16 0.00 0.00
3:35 am 03:35 Clear 62 16.7 61 16.1 96 96 NNE 6 9 29.86 1011 10 16 0.00 0.00
3:55 am 03:55 Clear 62 16.7 61 16 96 96 Calm 29.87 1012 10 16 0.00 0.00
4:15 am 04:15 Clear 61 16.2 60 15.7 97 97 W 12 19 29.92 1013 10 16 0.00 0.00
4:35 am 04:35 Clear 61 16.1 60 15.5 96 96 NW 8 13 29.92 1013 10 16 0.00 0.00
4:55 am 04:55 Clear 60 15.7 59 15.2 97 97 W 6 9 29.91 1013 10 16 0.00 0.00
5:15 am 05:15 Clear 60 15.5 59 15.2 98 98 WNW 10 17 29.91 1013 10 16 0.00 0.00
5:35 am 05:35 Clear 60 15.3 59 15 98 98 W 8 13 29.91 1013 10 16 0.00 0.00
5:55 am 05:55 Clear 59 15 58 14.7 98 98 W 10 17 29.93 1013 10 16 0.00 0.00
6:15 am 06:15 Partly Cloudy 59 15 58 14.6 97 97 W 7 11 29.92 1013 10 16 0.00 0.00
6:35 am 06:35 Partly Cloudy 58 14.7 58 14.4 98 98 W 8 13 29.93 1013 10 16 0.00 0.00
6:55 am 06:55 Mostly Cloudy 60 15.3 58 14.5 95 95 WNW 14 22 29.94 1014 10 16 0.00 0.00
7:15 am 07:15 Cloudy 60 15.7 58 14.4 92 92 W 15 24 29.94 1014 10 16 0.00 0.00
7:35 am 07:35 Cloudy 60 15.8 57 14.1 90 90 WNW 16 26 29.95 1014 10 16 0.00 0.00
7:55 am 07:55 Mostly Cloudy 60 15.7 56 13.5 87 87 WNW 13 20 29.96 1015 10 16 0.00 0.00
8:15 am 08:15 Mostly Cloudy 60 15.7 56 13.5 87 87 WNW 12 19 29.97 1015 10 16 0.00 0.00
8:35 am 08:35 Cloudy 60 15.6 56 13.1 85 85 WNW 17 28 29.98 1015 7 11 0.00 0.00
8:55 am 08:55 Partly Cloudy 60 15.5 54 12.2 81 81 WNW 20 31 29.99 1016 10 16 0.00 0.00
9:15 am 09:15 Sunny 61 16 54 12.2 78 78 WNW 25 41 29.99 1015 10 16 0.01 0.25
9:35 am 09:35 Partly Cloudy 60 15.8 52 11.1 74 74 WNW 18 30 30.00 1016 10 16 0.01 0.25
9:55 am 09:55 Partly Cloudy 62 16.7 53 11.5 72 72 WNW 20 31 29.99 1016 10 16 0.01 0.25
10:15 am 10:15 Sunny 61 16.3 52 11.2 72 72 WNW 20 31 29.99 1016 10 16 0.00 0.00
10:35 am 10:35 Sunny 63 17.2 52 11.2 68 68 WNW 18 30 30.00 1016 10 16 0.00 0.00
10:55 am 10:55 Sunny 65 18.2 52 11 63 63 WNW 23 37 29.99 1015 10 16 0.00 0.00
11:15 am 11:15 Sunny 65 18.6 51 10.4 59 59 WNW 23 37 29.98 1015 10 16 0.00 0.00
11:35 am 11:35 Sunny 67 19.3 51 10.7 58 58 WNW 20 31 29.98 1015 10 16 0.00 0.00
11:55 am 11:55 Sunny 68 20.2 51 10.8 55 55 WNW 21 33 29.97 1015 10 16 0.00 0.00
12:15 pm 12:15 Sunny 70 21.2 50 10.2 50 50 NW 24 39 29.95 1014 10 16 0.00 0.00
12:35 pm 12:35 Sunny 71 21.7 50 9.8 47 47 WNW 30 48 29.95 1014 10 16 0.00 0.00
12:55 pm 12:55 Sunny 72 22.1 50 10 46 46 WNW 25 41 29.94 1014 10 16 0.00 0.00
1:15 pm 13:15 Sunny 73 22.5 51 10.6 47 47 WNW 30 48 29.95 1014 10 16 0.00 0.00
1:35 pm 13:35 Sunny 73 22.5 50 10 45 45 WNW 18 30 29.95 1014 10 16 0.00 0.00
1:55 pm 13:55 Sunny 73 22.8 51 10.4 46 46 WNW 20 31 29.95 1014 10 16 0.00 0.00
2:15 pm 14:15 Sunny 73 23 51 10.4 45 45 W 23 37 29.95 1014 10 16 0.00 0.00
2:35 pm 14:35 Sunny 74 23.5 51 10.5 44 44 W 17 28 29.94 1014 10 16 0.00 0.00
2:55 pm 14:55 Sunny 74 23.6 51 10.3 43 43 WNW 20 31 29.94 1014 10 16 0.00 0.00
3:15 pm 15:15 Sunny 75 23.8 50 10 42 42 WNW 20 31 29.94 1014 10 16 0.00 0.00
3:35 pm 15:35 Sunny 76 24.2 52 11.3 44 44 WNW 15 24 29.95 1014 10 16 0.00 0.00
3:55 pm 15:55 Partly Cloudy 75 23.9 52 11 44 44 WNW 20 31 29.95 1014 10 16 0.00 0.00
4:15 pm 16:15 Partly Cloudy 75 23.8 51 10.6 43 43 WNW 20 31 29.95 1014 10 16 0.00 0.00
4:35 pm 16:35 Sunny 75 24 51 10.7 43 43 WNW 21 33 29.95 1014 10 16 0.00 0.00
4:55 pm 16:55 Sunny 75 24.1 50 10.2 42 42 WNW 21 33 29.95 1014 10 16 0.00 0.00
5:15 pm 17:15 Sunny 75 23.9 48 9.1 39 39 WNW 24 39 29.95 1014 10 16 0.00 0.00
5:35 pm 17:35 Sunny 75 23.7 50 9.8 41 41 WNW 24 39 29.95 1014 10 16 0.00 0.00
5:55 pm 17:55 Sunny 74 23.5 49 9.2 40 40 WNW 21 33 29.95 1014 10 16 0.00 0.00
6:15 pm 18:15 Sunny 73 23 50 10.1 44 44 NW 16 26 29.97 1015 10 16 0.00 0.00
6:35 pm 18:35 Sunny 73 22.5 50 10.1 45 45 NW 18 30 29.97 1015 10 16 0.00 0.00
6:55 pm 18:55 Sunny 71 21.9 50 10.1 47 47 WNW 14 22 29.99 1015 10 16 0.00 0.00
7:15 pm 19:15 Sunny 70 21 50 9.8 49 49 NW 20 31 30.00 1016 10 16 0.00 0.00
7:35 pm 19:35 Sunny 67 19.7 48 9.1 51 51 NW 15 24 30.01 1016 10 16 0.00 0.00
7:55 pm 19:55 Clear 65 18.5 49 9.3 55 55 NW 13 20 30.02 1017 10 16 0.00 0.00
8:15 pm 20:15 Clear 63 17 50 10 64 64 NW 8 13 30.04 1017 10 16 0.00 0.00
8:35 pm 20:35 Clear 60 15.5 50 10.2 71 71 NW 7 11 30.06 1018 10 16 0.00 0.00
8:55 pm 20:55 Clear 60 15.6 51 10.3 71 71 NW 7 11 30.07 1018 10 16 0.00 0.00
9:15 pm 21:15 Clear 58 14.6 51 10.6 77 77 W 3 6 30.10 1019 10 16 0.00 0.00
9:35 pm 21:35 Clear 57 13.9 52 10.9 82 82 WNW 6 9 30.12 1020 10 16 0.00 0.00
9:55 pm 21:55 Clear 57 13.7 51 10.5 81 81 NW 8 13 30.14 1021 10 16 0.00 0.00
10:15 pm 22:15 Clear 56 13.6 51 10.3 81 81 WNW 6 9 30.16 1021 10 16 0.00 0.00
10:35 pm 22:35 Clear 55 12.7 51 10.5 87 87 WSW 5 7 30.17 1022 10 16 0.00 0.00
10:55 pm 22:55 Clear 55 12.6 50 10.2 85 85 W 6 9 30.18 1022 10 16 0.00 0.00
11:15 pm 23:15 Clear 56 13.2 50 9.8 80 80 WNW 6 9 30.17 1022 10 16 0.00 0.00
11:35 pm 23:35 Clear 55 12.9 50 9.9 82 82 W 5 7 30.17 1022 10 16 0.00 0.00
11:55 pm 23:55 Clear 54 12.2 50 10 87 87 W 5 7 30.18 1022 10 16 0.00 0.00

Powered by AerisWeather